Weather History for Deming, NM

Change the Weather History Date:

Sunday, September 30, 2012

  Actual Average Record
Temperature  
Mean Temperature 70 °F 68 °F  
Max Temperature 86 °F 84 °F 93 °F (2003)
Min Temperature 53 °F 53 °F 36 °F (1986)
Cooling Degree Days 5    
Growing Degree Days 20 (Base 50)    
Moisture  
Dew Point 47 °F    
Average Humidity 55    
Maximum Humidity 93    
Minimum Humidity 17    
Precipitation  
Precipitation 0.00 in 0.04 in 1.10 in (1987)
Month to date precipitation 0.75 1.30  
Year to date precipitation 3.71 8.89  
Sea Level Pressure  
Sea Level Pressure 29.90 in    
Wind  
Wind Speed 5 mph (NW)    
Max Wind Speed 14 mph    
Max Gust Speed 22 mph    
Visibility 10 miles    
Events      
T = Trace of Precipitation, MM = Missing Value Source: NWS Daily Summary

Daily Weather History Graph

Daily Weather History Graph

Search for Another Location

Airport:

Trip Planner

Search our weather history database for the weather conditions in past years. The results will help you decide how hot, cold, wet, or windy it might be!

Date:

Astronomy

Sep. 30, 2012 Rise Set
Actual Time 7:04 AM MDT 6:56 PM MDT
Civil Twilight 6:40 AM MDT 7:20 PM MDT
Nautical Twilight 6:11 AM MDT 7:49 PM MDT
Astronomical Twilight 5:43 AM MDT 8:17 PM MDT
Moon 7:08 PM MDT (9/30) 7:33 AM MDT (9/30)
Length of Visible Light 12h 40m
Length of Day
11h 51m
Full, 100% of the Moon is Illuminated
Sep 30
Full
Oct 8
Last Quarter
Oct 15
New
Oct 21
First Quarter
Oct 29
Full

Hourly Weather History & Observations

Time (MDT) Temp. Dew Point Humidity Pressure Visibility Wind Dir Wind Speed Gust Speed Precip Events Conditions
12:53 AM 61.0 °F 55.0 °F 81% 29.97 in 10.0 mi NW 3.5 mph - N/A   Clear
1:53 AM 61.0 °F 54.0 °F 78% 29.96 in 10.0 mi West 5.8 mph - N/A   Clear
2:53 AM 59.0 °F 53.1 °F 81% 29.97 in 10.0 mi Calm Calm - N/A   Clear
3:53 AM 57.0 °F 54.0 °F 89% 29.96 in 10.0 mi Calm Calm - N/A   Clear
4:53 AM 55.9 °F 53.1 °F 90% 29.95 in 10.0 mi WNW 3.5 mph - N/A   Clear
5:53 AM 55.0 °F 53.1 °F 93% 29.96 in 10.0 mi NNW 3.5 mph - N/A   Clear
6:53 AM 54.0 °F 52.0 °F 93% 29.98 in 10.0 mi Variable 3.5 mph - N/A   Clear
8:53 AM 63.0 °F 53.1 °F 70% 29.98 in 10.0 mi WNW 3.5 mph - N/A   Clear
9:53 AM 70.0 °F 54.0 °F 57% 29.97 in 10.0 mi Variable 4.6 mph - N/A   Clear
10:53 AM 73.0 °F 52.0 °F 48% 29.96 in 10.0 mi WSW 4.6 mph - N/A   Clear
11:53 AM 75.9 °F 51.1 °F 42% 29.93 in 10.0 mi West 6.9 mph - N/A   Clear
12:53 PM 80.1 °F 48.9 °F 34% 29.91 in 10.0 mi Variable 3.5 mph - N/A   Clear
1:53 PM 82.0 °F 45.0 °F 27% 29.87 in 10.0 mi Variable 5.8 mph - N/A   Clear
2:53 PM 84.9 °F 39.0 °F 20% 29.84 in 10.0 mi SSW 5.8 mph - N/A   Clear
3:53 PM 86.0 °F 39.0 °F 19% 29.82 in 10.0 mi West 11.5 mph 17.3 mph N/A   Clear
4:53 PM 82.9 °F 37.0 °F 19% 29.81 in 10.0 mi Calm Calm - N/A   Clear
5:53 PM 84.0 °F 35.1 °F 17% 29.80 in 10.0 mi SSE 6.9 mph - N/A   Clear
6:53 PM 79.0 °F 36.0 °F 21% 29.83 in 10.0 mi ESE 5.8 mph - N/A   Clear
7:53 PM 73.0 °F 42.1 °F 33% 29.85 in 10.0 mi East 5.8 mph - N/A   Clear
8:53 PM 68.0 °F 45.0 °F 43% 29.86 in 10.0 mi ENE 5.8 mph - N/A   Clear
9:53 PM 66.9 °F 45.0 °F 45% 29.86 in 10.0 mi East 3.5 mph - N/A   Clear
10:53 PM 64.9 °F 44.1 °F 47% 29.87 in 10.0 mi NE 4.6 mph - N/A   Clear
11:53 PM 60.1 °F 46.0 °F 60% 29.88 in 10.0 mi East 5.8 mph - N/A   Clear